Flag for Poland Weather past 2 weeks in Lidzbark Warmiński, Poland

Now
56 °F

Clear.


Feels Like: 57 °F
Forecast: 45 / 71 °F
Wind: 3 mph from East

Location: Ketrzyn

Current Time: Sep 15, 2014 at 4:36:23 AM

Latest Report: Sep 15, 2014 at 4:00 AM


Visibility: 22 mi

Pressure: 30.27 "Hg

Humidity: 78%

Dew point: 50 °F

Location of Lidzbark WarmińskiLocation

Historic Weather in Lidzbark Warmiński — Graph

°F

Lidzbark Warmiński temperature yesterday

Maximum temperature yesterday: 77 °F (at 2:00 PM)
Minimum temperature yesterday: 56 °F (at 7:00 AM)
Average temperature yesterday: 66 °F

Past Weeks' High & Low Weather Summary

 TemperatureHumidityPressure
High80 °F (Sep 13, 4:00 PM)99% (Aug 31, 7:00 AM)30.40 "Hg (Aug 31, 7:00 AM)
Low45 °F (Sep 2, 6:00 AM)34% (Sep 7, 5:00 PM)29.90 "Hg (Sep 9, 4:00 PM)
Average61 °F71%30.12 "Hg
* Reported Aug 31 3:00 AM — Sep 15 3:00 AM, Lidzbark Warmiński, Weather by CustomWeather, © 2014

Note: Actual official high and low records may vary slightly from our data, if they occured in-between our weather recording intervals... More about our weather records

Advertising

Lidzbark Warmiński weather history for previous 24 hours

 ConditionsComfort  
Time TempWeatherWind HumidityBarometerVisibility
3:00 AM
Sep 15
58 °FClear.5 mph78%30.27 "Hg19 mi
2:00 AM59 °FClear.5 mph78%30.27 "Hg16 mi
1:00 AM60 °FClear.5 mph78%30.27 "Hg16 mi
12:00 AM62 °FClear.5 mph77%30.26 "Hg12 mi
11:00 PM
Sep 14
63 °FClear.3 mph76%30.26 "Hg11 mi
10:00 PM63 °FClear.2 mph74%30.24 "Hg10 mi
9:00 PM65 °FPassing clouds.3 mph68%30.23 "Hg11 mi
8:00 PM67 °FPassing clouds.3 mph63%30.22 "Hg12 mi
7:00 PM69 °FPassing clouds.3 mph56%30.21 "Hg12 mi
6:00 PM73 °FPartly sunny.3 mph48%30.19 "Hg15 mi
5:00 PM75 °FScattered clouds.3 mph44%30.19 "Hg14 mi
4:00 PM76 °FScattered clouds.5 mph40%30.19 "Hg17 mi
3:00 PM76 °FScattered clouds.5 mph37%30.19 "Hg16 mi
2:00 PM77 °FScattered clouds.5 mph39%30.20 "Hg16 mi
1:00 PM75 °FScattered clouds.3 mph49%30.21 "Hg13 mi
12:00 PM73 °FPassing clouds.3 mph49%30.21 "Hg12 mi
11:00 AM70 °FPassing clouds.3 mph54%30.22 "Hg12 mi
10:00 AM68 °FPassing clouds.2 mph61%30.22 "Hg12 mi
9:00 AM65 °FPassing clouds.1 mph68%30.22 "Hg12 mi
8:00 AM61 °FScattered clouds.2 mph79%30.22 "Hg8 mi
7:00 AM56 °FScattered clouds.2 mph84%30.21 "Hg7 mi
6:00 AM57 °FPassing clouds.1 mph82%30.21 "Hg7 mi
5:00 AM57 °FPassing clouds.2 mph85%30.21 "Hg7 mi
4:00 AM59 °FPassing clouds.2 mph78%30.20 "Hg9 mi
Weather by CustomWeather, © 2014

See weather overviewHow to use our weather pages